Weather in Ozerki

Russia / Novgorod Oblast     58°21′17″N   33°25′21″E
temp.,
°C
wind,
m/s
gust,
m/s
humid.,
%
clouds,
%
prec.,
mm/h
press.,
hPa
HPBL,
m
16 may, sun
sun1600:00+11ssw25975 0.3 100595
03:00+10ssw379815 1.5 1005161
06:00+11sw310967 0.1 1005315
09:00+14sw488690 0.1 1007575
12:00+15sw4877100 0.0 1008920
15:00+18wsw4663100 0.1 10091296
18:00+17wsw357296 0.1 1010595
21:00+13wsw23920 0.3 101248
17 may, mon
mon1700:00+11sw119458 0.0 101310
03:00+10sse22955 0.0 101419
06:00+12se269121 0.0 1014143
09:00+18se466597 0.0 1014596
12:00+21se5753100 0.0 10131560
15:00+23se5747100 0.0 10122080
18:00+22ese485371 0.0 10111414
21:00+16ese4138372 0.4 1010410
18 may, tue
tue1800:00+15ese41492100 0.4 1009441
03:00+15ese4119838 0.4 1008304
06:00+15ese4129599 0.0 1007354
09:00+20se51169100 0.0 1006656
12:00+25se71547100 0.0 10051588
15:00+26se613465 0.0 10042017
18:00+24sse61353100 0.0 10041846
21:00+21sse61470100 0.0 10051264
19 may, wed
wed1900:00+19s4126793 0.0 1006684
03:00+15sse399281 0.0 1006212
06:00+16se2791100 0.0 1005238
09:00+21se47695 0.0 1005637
12:00+26se612455 0.0 10041476
15:00+27se7193739 0.0 10033409
18:00+25sse4124420 0.0 10022828
21:00+16ese81490100 3.1 1002560
20 may, thu
thu2000:00+15sse6139313 0.9 1002577
03:00+14se4895100 0.9 1002562
06:00+14se3893100 0.1 1002749
09:00+16se4679100 0.1 1002874
12:00+17sse356882 0.2 10011061
15:00+18s4666100 1.4 1000995
18:00+16s378397 2.9 1000419
21:00+13wsw4996100 5.9 1001536